Flag for South Africa Weather past 2 weeks in Stellenbosch, South Africa

Now
54 °F

Passing clouds.


Feels Like: 49 °F
Forecast: 40 / 64 °F
Wind: 14 mph from South

Location: Cape Town International Airport

Current Time: Jun 30, 2015 at 11:25:30 PM

Latest Report: Jun 30, 2015 at 11:00 PM


Visibility: N/A

Pressure: 30.30 "Hg

Humidity: 94%

Dew point: 52 °F

Location of StellenboschLocation

Historic Weather in Stellenbosch — Graph

°F

Stellenbosch temperature yesterday

Maximum temperature yesterday: 59 °F (at 2:00 PM)
Minimum temperature yesterday: 50 °F (at 3:00 AM)
Average temperature yesterday: 54 °F

Past Weeks' High & Low Weather Summary

 TemperatureHumidityPressure
High72 °F (Jun 20, 1:00 PM)100% (Jun 16, 12:00 AM)30.48 "Hg (Jun 16, 12:00 AM)
Low41 °F (Jun 20, 5:00 AM)41% (Jun 20, 1:00 PM)29.86 "Hg (Jun 23, 9:00 PM)
Average54 °F86%30.20 "Hg
* Reported Jun 15 10:00 PM — Jun 30 10:00 PM, Stellenbosch, Weather by CustomWeather, © 2015

Note: Actual official high and low records may vary slightly from our data, if they occured in-between our weather recording intervals... More about our weather records

Advertising

Stellenbosch weather history for previous 24 hours

 ConditionsComfort  
Time TempWeatherWind HumidityBarometerVisibility
10:00 PM
Tue, Jun 30
54 °FPassing clouds.13 mph94%30.30 "HgN/A
9:00 PM55 °FPassing clouds.14 mph94%30.30 "HgN/A
8:00 PM55 °FPassing clouds.13 mph94%30.30 "HgN/A
7:00 PM55 °FPassing clouds.14 mph94%30.27 "HgN/A
6:00 PM55 °FPassing clouds.12 mph94%30.27 "HgN/A
5:00 PM59 °FPassing clouds.12 mph82%30.27 "HgN/A
4:00 PM59 °FSunny.14 mph77%30.24 "Hg10 mi
3:00 PM61 °FPassing clouds.9 mph72%30.24 "HgN/A
2:00 PM61 °FSunny.9 mph77%30.24 "Hg10 mi
1:00 PM59 °FPassing clouds.7 mph88%30.27 "HgN/A
12:00 PM55 °FScattered clouds.8 mph100%30.30 "HgN/A
11:00 AM54 °FScattered clouds.6 mph88%30.30 "Hg5 mi
10:00 AM52 °FSnow. Scattered clouds.1 mph94%30.30 "Hg4 mi
9:00 AM46 °FFog.3 mph93%30.30 "Hg0 mi
8:00 AM43 °FFog.2 mph100%30.27 "Hg0 mi
7:00 AM41 °FFog.2 mph100%30.27 "Hg1 mi
6:00 AM43 °FFog.2 mph100%30.27 "Hg0 mi
5:00 AM43 °FFog.2 mph100%30.27 "Hg1 mi
4:00 AM45 °FFog.3 mph93%30.27 "Hg1 mi
3:00 AM45 °FFog.2 mph100%30.27 "Hg0 mi
2:00 AM45 °FFog.3 mph100%30.27 "Hg0 mi
1:00 AM46 °FLight fog.3 mph100%30.27 "Hg1 mi
12:00 AM50 °FClear.2 mph94%30.30 "Hg10 mi
11:00 PM
Mon, Jun 29
54 °FClear.5 mph94%30.30 "Hg10 mi
Weather by CustomWeather, © 2015

See weather overviewHow to use our weather pages